SPY052 EPKK-EPGD

Flight info

Callsign SPY052
Flight time N/A
Altitude 36000
Route NAVUR N744 OVBOR N133 GRUDA/N0444F350 Z95 OSLOG
Aircraft A320/M-SDE3FGHIRWY/LB1

Departure

Time N/A
Airport Kraków John Paul II International Airport (EPKK)

Arrival

Time 2026-05-01 07:31
Airport Gdańsk Lech Wałęsa Airport (EPGD)
Time Latitude Longitude Altitude Speed Heading
2026-05-01 07:23 54.21542 19.08858 4995 ft 184 kts 337°
2026-05-01 07:23 54.23073 19.05246 5012 ft 198 kts 298°
2026-05-01 07:24 54.23613 19.03085 5010 ft 198 kts 298°
2026-05-01 07:24 54.24157 19.00927 5010 ft 197 kts 298°
2026-05-01 07:24 54.24703 18.98772 5017 ft 198 kts 299°
2026-05-01 07:24 54.25248 18.96616 5004 ft 198 kts 299°
2026-05-01 07:25 54.25800 18.94436 4785 ft 200 kts 298°
2026-05-01 07:25 54.26351 18.92255 4618 ft 199 kts 298°
2026-05-01 07:25 54.26897 18.90092 4435 ft 197 kts 298°
2026-05-01 07:25 54.27439 18.87943 4282 ft 196 kts 298°
2026-05-01 07:26 54.27979 18.85797 4118 ft 196 kts 298°
2026-05-01 07:26 54.28517 18.83659 3944 ft 195 kts 298°
2026-05-01 07:26 54.29054 18.81526 3734 ft 196 kts 298°
2026-05-01 07:26 54.29594 18.79377 3527 ft 197 kts 297°
2026-05-01 07:27 54.30139 18.77208 3312 ft 199 kts 297°
2026-05-01 07:27 54.30683 18.75036 3120 ft 198 kts 297°
2026-05-01 07:27 54.31208 18.72931 3033 ft 185 kts 297°
2026-05-01 07:27 54.31695 18.70983 2998 ft 169 kts 297°
2026-05-01 07:28 54.32136 18.69217 2946 ft 156 kts 298°
2026-05-01 07:28 54.32554 18.67547 2792 ft 150 kts 298°
2026-05-01 07:28 54.32963 18.65913 2610 ft 147 kts 298°
2026-05-01 07:28 54.33364 18.64310 2454 ft 146 kts 299°
2026-05-01 07:29 54.33767 18.62692 2260 ft 146 kts 296°
2026-05-01 07:29 54.34156 18.61131 2055 ft 140 kts 296°
2026-05-01 07:29 54.34531 18.59624 1865 ft 137 kts 296°
2026-05-01 07:29 54.34903 18.58129 1674 ft 136 kts 296°
2026-05-01 07:30 54.35272 18.56648 1491 ft 135 kts 296°
2026-05-01 07:30 54.35639 18.55171 1297 ft 134 kts 295°
2026-05-01 07:30 54.35881 18.54195 1176 ft 134 kts 295°
2026-05-01 07:30 54.36246 18.52725 999 ft 134 kts 295°
2026-05-01 07:31 54.36730 18.50780 756 ft 134 kts 295°
2026-05-01 07:31 54.37621 18.47173 458 ft 34 kts 293°
2026-05-01 07:32 54.37762 18.46827 456 ft 8 kts 318°
2026-05-01 07:32 54.37797 18.46776 458 ft 1 kts 321°
2026-05-01 07:33 54.37829 18.46733 458 ft 4 kts 322°
2026-05-01 07:33 54.37850 18.46706 459 ft 6 kts 322°
2026-05-01 07:33 54.37971 18.46580 460 ft 11 kts 356°
2026-05-01 07:34 54.38025 18.46610 460 ft 5 kts 22°
2026-05-01 07:34 54.38082 18.46659 460 ft 4 kts 24°
2026-05-01 07:34 54.38105 18.46675 460 ft 3 kts 23°
2026-05-01 07:35 54.38106 18.46676 460 ft 0 kts 23°